When you browse on this site, cookies collect data to enhance your experience and personalize the content and advertising you see.
Visit our Privacy Policy to learn more. By continuing to use the site, you agree to this use of cookies and data.
  • In Austria
  • List of Countries
  • For 7 days
  • Water Temperature
  • Weather Map
  • News
  • Weather Widgets
  • user-avatar
    Login

    Hourly Weather Mayrhofen

    Today, 26 February, Wednesday

    Time Temperature Precipitation Wind Pressure Humidity
    00:00 -2°C° 0.4 mm 2 mps 605 mmHg 96%
    01:00 -2°C° 0 mm 2 mps 604 mmHg 95%
    02:00 -3°C° 0.9 mm 2 mps 604 mmHg 96%
    03:00 -3°C° 0.9 mm 2 mps 603 mmHg 96%
    04:00 -2°C° 0.9 mm 1 mps 602 mmHg 96%
    05:00 -5°C° 0.9 mm 2 mps 602 mmHg 95%
    06:00 -6°C° 0.9 mm 2 mps 602 mmHg 95%
    07:00 -7°C° 0 mm 2 mps 602 mmHg 92%
    08:00 -6°C° 0.4 mm 2 mps 602 mmHg 84%
    09:00 -4°C° 0.4 mm 1 mps 602 mmHg 77%
    10:00 -3°C° 0.4 mm 1 mps 602 mmHg 69%
    11:00 -5°C° 0.1 mm 2 mps 602 mmHg 66%
    12:00 -5°C° 0.1 mm 3 mps 602 mmHg 63%
    13:00 -5°C° 0.1 mm 3 mps 602 mmHg 59%
    14:00 -6°C° 0.2 mm 3 mps 602 mmHg 62%
    15:00 -7°C° 0.2 mm 3 mps 602 mmHg 65%
    16:00 -8°C° 0.2 mm 3 mps 602 mmHg 68%
    17:00 -9°C° 0.1 mm 3 mps 602 mmHg 75%
    18:00 -10°C° 0.1 mm 2 mps 603 mmHg 81%
    19:00 -12°C° 0.1 mm 2 mps 603 mmHg 87%
    20:00 -12°C° 0.2 mm 2 mps 603 mmHg 89%
    21:00 -12°C° 0.2 mm 2 mps 604 mmHg 91%
    22:00 -12°C° 0.2 mm 2 mps 605 mmHg 92%
    23:00 -12°C° 0.2 mm 2 mps 605 mmHg 92%

    Tomorrow, 27 February, Thursday

    Time Temperature Precipitation Wind Pressure Humidity
    00:00 -12°C° 0.2 mm 2 mps 606 mmHg 92%
    01:00 -10°C° 0.2 mm 1 mps 606 mmHg 92%
    02:00 -11°C° 0.1 mm 1 mps 606 mmHg 92%
    03:00 -11°C° 0.1 mm 1 mps 606 mmHg 92%
    04:00 -11°C° 0.1 mm 1 mps 606 mmHg 91%
    05:00 -12°C° 0 mm 1 mps 606 mmHg 90%
    06:00 -12°C° 0 mm 1 mps 607 mmHg 89%
    07:00 -12°C° 0 mm 1 mps 607 mmHg 88%
    08:00 -10°C° 0 mm 1 mps 607 mmHg 80%
    09:00 -8°C° 0 mm 1 mps 608 mmHg 73%
    10:00 -6°C° 0 mm 1 mps 609 mmHg 65%
    11:00 -6°C° 0 mm 2 mps 608 mmHg 64%
    12:00 -7°C° 0 mm 3 mps 608 mmHg 62%
    13:00 -6°C° 0 mm 3 mps 607 mmHg 60%
    14:00 -7°C° 0 mm 4 mps 606 mmHg 62%
    15:00 -8°C° 0 mm 4 mps 605 mmHg 63%
    16:00 -8°C° 0 mm 4 mps 604 mmHg 64%
    17:00 -9°C° 0.5 mm 4 mps 604 mmHg 71%
    18:00 -10°C° 0.5 mm 5 mps 604 mmHg 77%
    19:00 -11°C° 0.5 mm 5 mps 603 mmHg 83%
    20:00 -10°C° 0.1 mm 4 mps 603 mmHg 84%
    21:00 -11°C° 0.1 mm 4 mps 603 mmHg 84%
    22:00 -11°C° 0.1 mm 4 mps 603 mmHg 85%
    23:00 -11°C° 0.3 mm 4 mps 604 mmHg 87%

    Day after tomorrow, 28 February, Friday

    Time Temperature Precipitation Wind Pressure Humidity
    00:00 -9°C° 0.3 mm 3 mps 605 mmHg 90%
    01:00 -9°C° 0.3 mm 3 mps 606 mmHg 92%
    02:00 -9°C° 0.5 mm 3 mps 606 mmHg 92%
    03:00 -10°C° 0.5 mm 3 mps 607 mmHg 91%
    04:00 -10°C° 0.5 mm 3 mps 607 mmHg 91%
    05:00 -10°C° 0.5 mm 2 mps 608 mmHg 92%
    06:00 -10°C° 0.5 mm 2 mps 609 mmHg 92%
    07:00 -10°C° 0.5 mm 2 mps 609 mmHg 93%
    08:00 -9°C° 0.2 mm 2 mps 610 mmHg 87%
    09:00 -8°C° 0.2 mm 2 mps 611 mmHg 80%
    10:00 -7°C° 0.2 mm 2 mps 612 mmHg 74%
    11:00 -6°C° 0 mm 2 mps 613 mmHg 71%
    12:00 -5°C° 0 mm 2 mps 613 mmHg 69%
    13:00 -4°C° 0 mm 2 mps 614 mmHg 66%
    14:00 -2°C° 0 mm 1 mps 613 mmHg 65%
    15:00 -2°C° 0 mm 1 mps 613 mmHg 64%
    16:00 -2°C° 0 mm 1 mps 613 mmHg 62%
    17:00 -3°C° 0 mm 1 mps 613 mmHg 64%
    18:00 -6°C° 0 mm 1 mps 612 mmHg 65%
    19:00 -8°C° 0 mm 2 mps 612 mmHg 67%
    20:00 -8°C° 0 mm 2 mps 612 mmHg 67%
    21:00 -7°C° 0 mm 2 mps 612 mmHg 68%
    22:00 -7°C° 0 mm 2 mps 612 mmHg 68%
    23:00 -7°C° 0 mm 2 mps 612 mmHg 69%

    29 February, Saturday

    Time Temperature Precipitation Wind Pressure Humidity
    00:00 -7°C° 0 mm 2 mps 612 mmHg 70%
    01:00 -7°C° 0 mm 2 mps 612 mmHg 71%
    02:00 -7°C° 0 mm 2 mps 611 mmHg 70%
    03:00 -7°C° 0 mm 2 mps 611 mmHg 70%
    04:00 -8°C° 0 mm 2 mps 611 mmHg 70%
    05:00 -7°C° 0 mm 2 mps 610 mmHg 70%
    06:00 -8°C° 0 mm 3 mps 610 mmHg 70%
    07:00 -8°C° 0 mm 3 mps 610 mmHg 70%
    08:00 -7°C° 0 mm 3 mps 610 mmHg 71%
    09:00 -6°C° 0 mm 3 mps 610 mmHg 72%
    10:00 -4°C° 0 mm 4 mps 610 mmHg 73%
    11:00 -4°C° 0 mm 4 mps 609 mmHg 74%
    12:00 -3°C° 0 mm 4 mps 609 mmHg 75%
    13:00 -4°C° 0 mm 5 mps 608 mmHg 76%
    14:00 -4°C° 0 mm 5 mps 608 mmHg 76%
    15:00 -4°C° 0 mm 5 mps 607 mmHg 75%
    16:00 -4°C° 0 mm 5 mps 607 mmHg 75%
    17:00 -5°C° 0 mm 4 mps 607 mmHg 77%
    18:00 -7°C° 0 mm 4 mps 606 mmHg 80%
    19:00 -9°C° 0 mm 4 mps 606 mmHg 83%
    20:00 -9°C° 0 mm 4 mps 606 mmHg 84%
    21:00 -9°C° 0 mm 4 mps 606 mmHg 85%
    22:00 -9°C° 0 mm 4 mps 606 mmHg 87%
    23:00 -8°C° 0 mm 3 mps 606 mmHg 88%

    1 March, Sunday

    Time Temperature Precipitation Wind Pressure Humidity
    00:00 -8°C° 0 mm 3 mps 606 mmHg 89%
    01:00 -7°C° 0 mm 2 mps 606 mmHg 90%
    02:00 -7°C° 0 mm 2 mps 606 mmHg 91%
    03:00 -7°C° 0 mm 2 mps 606 mmHg 91%
    04:00 -6°C° 0 mm 1 mps 606 mmHg 92%
    05:00 -4°C° 0.3 mm 1 mps 606 mmHg 93%
    06:00 -4°C° 0.3 mm 1 mps 606 mmHg 95%
    07:00 -5°C° 0.3 mm 0 mps 606 mmHg 96%
    08:00 -3°C° 0.9 mm 1 mps 606 mmHg 96%
    09:00 -2°C° 0.9 mm 1 mps 606 mmHg 96%
    10:00 -1°C° 0.9 mm 1 mps 607 mmHg 95%
    11:00 -1°C° 1.1 mm 1 mps 607 mmHg 96%
    12:00 -3°C° 1.1 mm 2 mps 606 mmHg 96%
    13:00 -3°C° 1.1 mm 2 mps 606 mmHg 97%
    14:00 -3°C° 1.1 mm 2 mps 606 mmHg 96%
    15:00 -3°C° 1.1 mm 2 mps 606 mmHg 95%
    16:00 -3°C° 1.1 mm 2 mps 606 mmHg 95%
    17:00 -5°C° 0.2 mm 2 mps 605 mmHg 95%
    18:00 -4°C° 0.2 mm 1 mps 605 mmHg 95%
    19:00 -6°C° 0.2 mm 1 mps 605 mmHg 96%
    20:00 -7°C° 0 mm 1 mps 605 mmHg 94%
    21:00 -7°C° 0 mm 1 mps 605 mmHg 91%
    22:00 -8°C° 0 mm 1 mps 605 mmHg 89%
    23:00 -7°C° 0 mm 1 mps 605 mmHg 87%

    2 March, Monday

    Time Temperature Precipitation Wind Pressure Humidity
    00:00 -7°C° 0 mm 1 mps 605 mmHg 85%
    01:00 -7°C° 0 mm 1 mps 605 mmHg 82%
    02:00 -7°C° 0 mm 1 mps 605 mmHg 83%
    03:00 -7°C° 0 mm 1 mps 605 mmHg 83%
    04:00 -8°C° 0 mm 1 mps 605 mmHg 84%
    05:00 -8°C° 0 mm 1 mps 605 mmHg 84%
    06:00 -8°C° 0 mm 1 mps 605 mmHg 84%
    07:00 -8°C° 0 mm 1 mps 605 mmHg 84%
    08:00 -6°C° 0 mm 1 mps 606 mmHg 83%
    09:00 -3°C° 0 mm 1 mps 607 mmHg 82%
    10:00 -1°C° 0 mm 1 mps 608 mmHg 81%
    11:00 0°C° 0 mm 1 mps 608 mmHg 84%
    12:00 -1°C° 0 mm 2 mps 607 mmHg 86%
    13:00 -1°C° 0 mm 2 mps 607 mmHg 88%
    14:00 -1°C° 0 mm 2 mps 607 mmHg 89%
    15:00 -1°C° 0 mm 2 mps 606 mmHg 89%
    16:00 -1°C° 0 mm 3 mps 605 mmHg 89%
    17:00 -2°C° 0 mm 3 mps 605 mmHg 90%
    18:00 -4°C° 0 mm 3 mps 604 mmHg 90%
    19:00 -5°C° 0 mm 3 mps 604 mmHg 91%
    20:00 -5°C° 0 mm 3 mps 604 mmHg 91%
    21:00 -4°C° 0 mm 2 mps 604 mmHg 91%
    22:00 -4°C° 0 mm 2 mps 604 mmHg 91%
    23:00 -4°C° 0.1 mm 2 mps 604 mmHg 91%
    Show more